Watertown, SD

3:29 PM CDT on July 25, 2017 (GMT -0500)
Watertown Municipal

Weather History for KATY - January, 2014

Change the Weather History Date:

Tuesday, January 14, 2014

  Actual Average Record
Temperature  
Mean Temperature 19 °F 12 °F  
Max Temperature 34 °F 22 °F 49 °F (1990)
Min Temperature 3 °F 3 °F -38 °F (1916)
Degree Days  
Heating Degree Days 46 53  
Month to date heating degree days 802 735  
Since 1 July heating degree days 4400 4194  
Cooling Degree Days 0 0  
Month to date cooling degree days 0 0  
Year to date cooling degree days 0 0  
Moisture  
Dew Point 15 °F    
Average Humidity 82    
Maximum Humidity 96    
Minimum Humidity 67    
Precipitation  
Precipitation 0.03 in 0.02 in 0.52 in (1952)
Month to date precipitation 0.04 0.24  
Year to date precipitation 0.04 0.24  
Snow  
Snow T in - - ()
Month to date snowfall T  
Since 1 July snowfall 11.4  
Snow Depth 7.00 in    
Sea Level Pressure  
Sea Level Pressure 29.96 in    
Wind  
Wind Speed 22 mph (NNW)    
Max Wind Speed 44 mph    
Max Gust Speed 56 mph    
Visibility 4 miles    
Events Fog , Snow    
T = Trace of Precipitation, MM = Missing Value Source: NWS Daily Summary

Daily Weather History Graph

Daily Weather History Graph

Search for Another Location

Airport or City:

Trip Planner

Search our weather history database for the weather conditions in past years. The results will help you decide how hot, cold, wet, or windy it might be!

Date:

Astronomy

Jan. 14, 2014 Rise Set
Actual Time 8:03 AM CST 5:12 PM CST
Civil Twilight 7:30 AM CST 5:45 PM CST
Nautical Twilight 6:54 AM CST 6:21 PM CST
Astronomical Twilight 6:19 AM CST 6:56 PM CST
Moon 4:20 PM CST (1/14) 6:37 AM CST (1/14)
Length of Visible Light 10h 14m
Length of Day
9h 08m
Waxing Gibbous, 98% of the Moon is Illuminated
Jan 14
Waxing Gibbous
Jan 15
Full
Jan 23
Last Quarter
Jan 30
New
Feb 6
First Quarter

Hourly Weather History & Observations

Time (CST) Temp. Windchill Dew Point Humidity Pressure Visibility Wind Dir Wind Speed Gust Speed Precip Events Conditions
12:11 AM 33.8 °F 19.6 °F 28.4 °F 81% 29.54 in 10.0 mi NW 32.2 mph 41.4 mph N/A   Overcast
12:21 AM 32.0 °F 17.6 °F 28.4 °F 87% 29.55 in 10.0 mi NW 29.9 mph 46.0 mph 0.00 in Snow Light Snow
12:28 AM 32.0 °F 17.9 °F 28.4 °F 87% 29.56 in 5.0 mi NW 28.8 mph 42.6 mph 0.00 in Snow Light Snow
12:36 AM 30.2 °F 15.7 °F 28.4 °F 93% 29.56 in 2.0 mi NW 27.6 mph 41.4 mph 0.00 in Snow Light Snow
12:45 AM 30.2 °F 15.4 °F 28.4 °F 93% 29.57 in 2.5 mi NW 28.8 mph 40.3 mph 0.00 in Snow Light Snow
12:53 AM 30.0 °F 15.7 °F 28.0 °F 92% 29.63 in 1.8 mi NW 26.5 mph 35.7 mph 0.00 in Snow Light Snow
1:07 AM 30.2 °F 16.2 °F 28.4 °F 93% 29.57 in 3.0 mi NW 25.3 mph 32.2 mph 0.00 in Snow Light Snow
1:29 AM 30.2 °F 14.9 °F 26.6 °F 86% 29.59 in 10.0 mi NW 31.1 mph 40.3 mph 0.00 in   Overcast
1:39 AM 30.2 °F 13.9 °F 24.8 °F 80% 29.60 in 10.0 mi NW 36.8 mph 49.5 mph 0.00 in   Mostly Cloudy
1:53 AM 30.0 °F 14.2 °F 25.0 °F 82% 29.68 in 10.0 mi NW 33.4 mph 41.4 mph 0.00 in   Mostly Cloudy
2:12 AM 26.6 °F 8.7 °F 21.2 °F 80% 29.66 in 3.0 mi NW 38.0 mph 56.4 mph N/A   Overcast
2:53 AM 25.0 °F 6.4 °F 21.0 °F 85% 29.76 in 6.0 mi NW 38.0 mph 46.0 mph 0.00 in   Overcast
3:16 AM 24.8 °F 7.1 °F 19.4 °F 80% 29.72 in 1.8 mi NW 33.4 mph 47.2 mph 0.00 in Snow Light Snow
3:21 AM 23.0 °F 4.6 °F 19.4 °F 86% 29.72 in 1.0 mi NNW 33.4 mph 55.2 mph 0.00 in Snow Light Snow
3:28 AM 23.0 °F 3.2 °F 19.4 °F 86% 29.73 in 1.2 mi NNW 40.3 mph 47.2 mph 0.00 in Snow Light Snow
3:36 AM 23.0 °F 3.4 °F 19.4 °F 86% 29.73 in 1.5 mi NNW 39.1 mph 50.6 mph 0.00 in Snow Light Snow
3:39 AM 23.0 °F 4.4 °F 19.4 °F 86% 29.73 in 3.0 mi NNW 34.5 mph 50.6 mph 0.00 in Snow Light Snow
3:53 AM 24.1 °F 5.6 °F 19.0 °F 81% 29.81 in 10.0 mi NNW 35.7 mph 49.5 mph 0.00 in   Overcast
4:53 AM 23.0 °F 6.0 °F 19.0 °F 85% 29.85 in 6.0 mi NNW 27.6 mph 38.0 mph 0.00 in Snow Light Snow
5:53 AM 21.9 °F 6.2 °F 18.0 °F 85% 29.88 in 5.0 mi NNW 21.9 mph 28.8 mph 0.00 in Snow Light Snow
6:15 AM 21.2 °F 4.2 °F 17.6 °F 86% 29.82 in 1.8 mi NNW 25.3 mph 35.7 mph 0.00 in Snow Light Snow
6:17 AM 19.4 °F 1.4 °F 17.6 °F 93% 29.82 in 1.2 mi NNW 26.5 mph 36.8 mph 0.00 in Snow Light Snow
6:25 AM 19.4 °F -1.1 °F 15.8 °F 86% 29.82 in 2.0 mi NNW 36.8 mph 43.7 mph 0.00 in Snow Light Snow
6:27 AM 19.4 °F -0.8 °F 14.0 °F 80% 29.82 in 3.0 mi NW 35.7 mph 43.7 mph 0.00 in Snow Light Snow
6:53 AM 19.9 °F 0.7 °F 12.0 °F 71% 29.91 in 10.0 mi NW 32.2 mph 39.1 mph 0.00 in   Overcast
7:53 AM 19.9 °F 1.0 °F 10.9 °F 68% 29.95 in 10.0 mi NW 31.1 mph 38.0 mph N/A   Overcast
8:53 AM 19.9 °F 1.0 °F 10.0 °F 65% 29.98 in 10.0 mi NNW 31.1 mph 42.6 mph N/A   Overcast
9:53 AM 19.9 °F 0.7 °F 10.9 °F 68% 30.02 in 10.0 mi NNW 32.2 mph 36.8 mph N/A   Overcast
10:10 AM 19.4 °F 0.8 °F 12.2 °F 74% 29.97 in 1.5 mi NNW 28.8 mph 36.8 mph 0.00 in Snow Light Snow
10:12 AM 17.6 °F -1.0 °F 12.2 °F 79% 29.97 in 0.8 mi NNW 26.5 mph 33.4 mph 0.00 in Snow Light Snow
10:18 AM 17.6 °F -1.0 °F 14.0 °F 86% 29.98 in 0.2 mi NNW 26.5 mph 33.4 mph 0.00 in Fog , Snow Snow
10:28 AM 17.6 °F -0.3 °F 14.0 °F 86% 29.98 in 0.5 mi NNW 24.2 mph 31.1 mph 0.00 in Fog , Snow Light Snow
10:38 AM 17.6 °F -0.3 °F 14.0 °F 86% 30.00 in 1.5 mi NNW 24.2 mph 32.2 mph 0.00 in Snow Light Snow
10:53 AM 18.0 °F 0.9 °F 14.0 °F 84% 30.08 in 1.8 mi NNW 21.9 mph 29.9 mph 0.00 in Snow Light Snow
11:02 AM 17.6 °F 0.5 °F 14.0 °F 86% 30.01 in 3.0 mi NNW 21.9 mph - 0.00 in Snow Light Snow
11:26 AM 17.6 °F 1.7 °F 14.0 °F 86% 30.02 in 2.0 mi NNW 18.4 mph 27.6 mph 0.00 in Snow Light Snow
11:39 AM 17.6 °F 0.9 °F 12.2 °F 79% 30.02 in 1.8 mi North 20.7 mph - 0.00 in Snow Light Snow
11:48 AM 17.6 °F 2.7 °F 14.0 °F 86% 30.02 in 1.2 mi North 16.1 mph 26.5 mph 0.00 in Snow Light Snow
11:53 AM 18.0 °F 2.6 °F 14.0 °F 84% 30.10 in 1.8 mi North 17.3 mph - 0.00 in Snow Light Snow
12:01 PM 17.6 °F 1.7 °F 14.0 °F 86% 30.03 in 2.5 mi North 18.4 mph - 0.00 in Snow Light Snow
12:12 PM 17.6 °F 2.2 °F 14.0 °F 86% 30.02 in 5.0 mi NNW 17.3 mph - 0.00 in Snow Light Snow
12:41 PM 17.6 °F 2.7 °F 14.0 °F 86% 30.03 in 2.5 mi NNW 16.1 mph - 0.00 in Snow Light Snow
12:53 PM 19.0 °F 5.0 °F 14.0 °F 81% 30.11 in 4.0 mi NNW 15.0 mph - 0.00 in Snow Light Snow
1:13 PM 19.4 °F 3.2 °F 14.0 °F 80% 30.04 in 8.0 mi NNW 20.7 mph - 0.00 in   Overcast
1:23 PM 17.6 °F 1.3 °F 12.2 °F 79% 30.04 in 2.5 mi NNW 19.6 mph - 0.00 in Snow Light Snow
1:32 PM 17.6 °F 1.3 °F 12.2 °F 79% 30.05 in 1.5 mi NNW 19.6 mph - 0.00 in Snow Light Snow
1:43 PM 17.6 °F 1.7 °F 12.2 °F 79% 30.05 in 1.2 mi NNW 18.4 mph 24.2 mph 0.00 in Snow Light Snow
1:53 PM 18.0 °F 3.1 °F 12.9 °F 81% 30.13 in 1.2 mi NNW 16.1 mph 28.8 mph 0.00 in Snow Light Snow
1:56 PM 17.6 °F 1.7 °F 12.2 °F 79% 30.06 in 2.0 mi NNW 18.4 mph - 0.00 in Snow Light Snow
2:11 PM 17.6 °F 1.7 °F 12.2 °F 79% 30.07 in 1.2 mi NNW 18.4 mph - 0.00 in Snow Light Snow
2:15 PM 17.6 °F 3.7 °F 14.0 °F 86% 30.07 in 0.8 mi NNW 13.8 mph - 0.00 in Snow Light Snow
2:44 PM 17.6 °F 3.7 °F 14.0 °F 86% 30.08 in 0.2 mi NNW 13.8 mph - 0.00 in Fog , Snow Snow
2:53 PM 17.1 °F 1.5 °F 14.0 °F 88% 30.17 in 0.5 mi NNW 17.3 mph 24.2 mph 0.00 in Fog , Snow Snow
3:17 PM 17.6 °F 2.2 °F 14.0 °F 86% 30.10 in 0.2 mi North 17.3 mph - 0.00 in Fog , Snow Heavy Snow
3:22 PM 17.6 °F 1.7 °F 12.2 °F 79% 30.10 in 0.5 mi NNW 18.4 mph 24.2 mph 0.00 in Fog , Snow Snow
3:27 PM 17.6 °F 0.5 °F 12.2 °F 79% 30.10 in 1.5 mi NNW 21.9 mph - 0.00 in Snow Light Snow
3:32 PM 17.6 °F 0.5 °F 12.2 °F 79% 30.10 in 2.5 mi NNW 21.9 mph - 0.00 in Snow Light Snow
3:46 PM 17.6 °F 1.7 °F 12.2 °F 79% 30.11 in 1.2 mi NNW 18.4 mph 27.6 mph 0.00 in Snow Light Snow
3:53 PM 17.1 °F 2.0 °F 12.0 °F 81% 30.20 in 2.0 mi NNW 16.1 mph - 0.00 in Snow Light Snow
4:01 PM 17.6 °F 0.9 °F 12.2 °F 79% 30.12 in 6.0 mi NNW 20.7 mph 24.2 mph 0.00 in Snow Light Snow
4:36 PM 15.8 °F -1.1 °F 12.2 °F 86% 30.12 in 5.0 mi NNW 19.6 mph - 0.00 in Snow Light Snow
4:49 PM 15.8 °F -1.5 °F 10.4 °F 79% 30.12 in 1.8 mi NNW 20.7 mph - 0.00 in Snow Light Snow
4:53 PM 16.0 °F -1.7 °F 12.0 °F 84% 30.21 in 1.8 mi NNW 21.9 mph - 0.00 in Snow Light Snow
5:00 PM 15.8 °F -2.3 °F 10.4 °F 79% 30.12 in 3.0 mi NNW 23.0 mph 27.6 mph 0.00 in Snow Light Snow
5:53 PM 15.1 °F -1.6 °F 10.9 °F 84% 30.23 in 8.0 mi NNW 18.4 mph 24.2 mph 0.00 in Snow Light Snow
6:09 PM 15.8 °F -0.6 °F 10.4 °F 79% 30.14 in 2.5 mi NW 18.4 mph 26.5 mph 0.00 in Snow Light Snow
6:18 PM 15.8 °F -0.2 °F 10.4 °F 79% 30.15 in 4.0 mi NNW 17.3 mph - 0.00 in Snow Light Snow
6:53 PM 14.0 °F -3.0 °F 9.0 °F 80% 30.25 in 5.0 mi NNW 18.4 mph - 0.00 in Snow Light Snow
7:53 PM 12.0 °F -5.1 °F 6.1 °F 77% 30.26 in 10.0 mi NNW 17.3 mph - 0.00 in   Overcast
8:53 PM 10.9 °F -5.9 °F 5.0 °F 77% 30.27 in 10.0 mi NNW 16.1 mph - N/A   Overcast
9:27 PM 8.6 °F -6.3 °F 3.2 °F 79% 30.17 in 10.0 mi NNW 11.5 mph - N/A   Scattered Clouds
9:53 PM 7.0 °F -7.5 °F 3.0 °F 84% 30.27 in 10.0 mi NNW 10.4 mph - N/A   Clear
10:53 PM 3.9 °F -12.2 °F 1.0 °F 88% 30.28 in 10.0 mi NNW 11.5 mph - N/A   Clear
11:53 PM 3.0 °F -12.5 °F -0.0 °F 87% 30.25 in 10.0 mi NNW 10.4 mph - N/A   Clear